Vertical_Velocity
-1 1 1 3 -4 -1 -1 -2 2 -2 -1 3 1 1 0 2 1 -2 0 1 -1 0 -3 -2 -1 4 2 6 0 0 -1 -2 -1
-0 2 -1 -3 -3 -1 -2 -0 2 0 -2 2 1 1 1 -1 -0 2 -0 -0 -2 -1 -0 -3 -2 -1 2 -1 1 1 -1 2 3
1 -0 -2 2 -2 -3 -1 1 -0 0 2 1 -1 1 -1 -2 -2 -2 -0 0 1 0 -0 -1 -2 -1 -4 -2 -1 2 2 -2 -1
3 -2 3 -4 3 -0 1 1 -3 -2 0 1 0 0 1 0 1 -0 0 0 2 -1 2 1 -1 -2 -1 -1 -4 -3 2 -2 -1
-1 2 -0 1 -4 -0 -2 2 3 -0 -1 1 0 1 3 0 4 0 0 -0 -0 3 -1 -2 1 0 -1 -1 -0 -1 -4 -1 -2
-4 -2 -1 0 3 7 4 -1 1 -2 3 -0 1 2 -1 -1 -2 -2 1 -1 -1 -0 2 -1 -1 2 -1 2 -1 -1 -1 1 1
-1 2 -0 -1 -2 1 2 0 -3 -0 2 1 1 0 -3 -1 -1 1 -1 1 -2 -2 1 -0 -1 -1 0 0 0 -1 -1 -2 -2
1 1 -1 -2 0 0 0 -1 -0 2 1 2 -1 0 -1 -2 0 -3 0 1 -2 -1 1 3 3 -1 -0 -2 -2 0 2 -2 -1
1 0 -0 2 0 -2 -2 -3 -3 -1 1 3 1 2 -1 2 1 -2 -2 3 2 2 4 1 1 1 -1 -4 0 -0 -0 -3 0
1 1 1 1 1 2 0 -2 -0 -1 -1 1 4 2 1 1 3 1 -2 2 1 0 1 5 2 0 -2 -0 -0 -1 -0 1 1
0 0 0 1 1 2 1 2 0 -0 -0 1 2 0 0 2 -0 2 1 -4 -1 -3 3 7 4 2 -2 -1 -1 -0 -2 -2 -1
0 0 1 1 1 1 0 1 0 -2 -0 2 2 -2 -0 2 -0 2 -1 -2 -1 2 -2 4 9 5 3 3 -2 0 0 0 -2
-1 0 1 1 -0 1 2 2 2 -2 1 -0 -2 -2 0 1 1 0 -4 -7 -0 -3 4 -0 -2 5 3 4 4 -0 1 1 -3
2 1 1 2 1 0 -0 0 2 -0 0 0 -0 0 1 0 0 -1 -1 -4 0 -3 -0 4 1 -4 6 1 2 -2 -5 3 -2
1 0 1 1 1 1 1 3 2 1 -0 0 -0 -1 0 -0 0 -1 1 -0 0 -1 -4 -2 0 4 -2 4 4 -4 -3 5 -4
-0 0 1 1 2 2 1 1 2 -1 1 -1 1 0 0 1 -1 0 -1 -3 -2 -1 -2 -1 -2 -3 -2 1 1 4 1 1 0
1 1 2 2 1 0 1 1 -1 1 1 -2 2 -0 1 1 0 0 1 2 0 -1 -0 -0 -2 -1 1 -1 -4 3 5 0 2
1 1 2 3 2 1 1 0 -0 -1 0 1 -0 -2 -1 0 0 2 1 -1 -1 -1 -2 -2 -1 -0 -1 -0 2 -0 1 -1 -1
1 1 1 2 2 1 2 3 2 2 0 0 1 0 1 -3 -2 -1 -2 -2 -1 -1 -0 -0 0 1 1 0 1 1 -0 -3 0
1 2 2 1 2 4 2 1 -0 2 4 1 0 1 0 -1 -1 -2 -3 -1 -1 -0 0 -1 -0 -0 -1 0 0 2 1 0 -3
Height
1531 1532 1533 1534 1535 1538 1539 1540 1541 1541 1542 1543 1543 1544 1545 1545 1546 1547 1547 1548 1548 1549 1551 1552 1553 1555 1556 1557 1558 1559 1560 1561 1561
1529 1530 1532 1533 1536 1538 1539 1540 1541 1541 1543 1543 1545 1545 1546 1546 1547 1547 1548 1549 1550 1551 1551 1553 1555 1556 1557 1558 1559 1560 1561 1562 1563
1527 1528 1530 1532 1535 1538 1540 1540 1541 1542 1543 1544 1546 1546 1547 1547 1548 1548 1549 1550 1551 1552 1553 1554 1556 1557 1558 1559 1560 1562 1562 1563 1564
1524 1527 1529 1532 1535 1537 1539 1539 1541 1542 1544 1545 1546 1547 1548 1549 1549 1550 1550 1551 1552 1553 1554 1555 1556 1557 1559 1559 1561 1562 1563 1563 1564
1523 1526 1529 1532 1534 1537 1539 1539 1541 1542 1544 1545 1547 1547 1550 1550 1551 1550 1552 1552 1553 1553 1555 1556 1557 1557 1559 1560 1561 1562 1563 1563 1564
1522 1525 1528 1531 1534 1537 1538 1539 1541 1543 1544 1546 1547 1548 1550 1551 1552 1552 1553 1554 1553 1555 1555 1557 1557 1558 1559 1559 1561 1562 1563 1564 1564
1521 1523 1526 1530 1533 1535 1537 1538 1540 1542 1544 1545 1547 1549 1551 1553 1553 1553 1554 1554 1554 1556 1557 1557 1558 1559 1559 1560 1561 1562 1563 1564 1565
1520 1522 1524 1528 1531 1534 1536 1538 1539 1541 1543 1545 1548 1549 1551 1554 1554 1554 1555 1555 1555 1556 1557 1558 1558 1558 1560 1560 1561 1562 1563 1563 1565
1519 1521 1523 1526 1528 1531 1533 1535 1537 1541 1543 1545 1547 1549 1551 1553 1553 1554 1556 1556 1556 1556 1556 1558 1558 1558 1559 1560 1561 1562 1562 1564 1565
1518 1520 1522 1525 1527 1529 1531 1534 1536 1539 1542 1544 1547 1548 1550 1552 1553 1554 1556 1556 1556 1556 1557 1558 1558 1558 1559 1560 1561 1562 1563 1563 1564
1517 1519 1521 1523 1526 1528 1531 1533 1536 1538 1541 1544 1546 1548 1550 1551 1553 1553 1554 1556 1556 1557 1557 1558 1558 1559 1560 1561 1562 1562 1562 1563 1563
1517 1519 1520 1522 1524 1527 1529 1531 1534 1537 1539 1542 1544 1546 1548 1549 1551 1552 1554 1555 1556 1557 1556 1556 1558 1559 1560 1561 1561 1562 1562 1561 1562
1515 1517 1519 1521 1523 1526 1528 1531 1533 1535 1537 1539 1542 1544 1546 1547 1549 1550 1552 1554 1555 1556 1556 1557 1557 1559 1560 1561 1561 1561 1562 1562 1561
1514 1516 1518 1520 1522 1524 1527 1529 1531 1533 1535 1536 1539 1541 1543 1545 1546 1548 1549 1551 1552 1553 1554 1556 1558 1559 1561 1561 1561 1560 1563 1562 1561
1512 1513 1516 1518 1520 1522 1525 1527 1530 1531 1533 1534 1537 1539 1540 1542 1543 1545 1546 1548 1550 1551 1553 1555 1557 1559 1561 1562 1562 1562 1564 1562 1561
1509 1511 1513 1516 1518 1520 1523 1525 1527 1528 1531 1533 1535 1537 1538 1540 1541 1543 1544 1545 1547 1549 1551 1553 1555 1557 1560 1561 1562 1562 1562 1562 1561
1507 1509 1511 1513 1515 1517 1519 1522 1523 1526 1529 1531 1534 1537 1539 1538 1539 1540 1541 1542 1544 1546 1548 1550 1553 1555 1558 1559 1560 1561 1561 1560 1560
1504 1506 1509 1511 1513 1515 1517 1519 1521 1523 1526 1529 1532 1533 1533 1535 1537 1538 1539 1541 1542 1544 1546 1548 1551 1553 1555 1557 1558 1559 1559 1559 1558
1501 1503 1505 1508 1510 1512 1515 1517 1520 1522 1524 1526 1528 1529 1531 1532 1534 1536 1537 1539 1541 1542 1544 1546 1548 1550 1552 1554 1556 1556 1557 1557 1556
1498 1500 1502 1504 1506 1509 1512 1514 1516 1520 1522 1524 1525 1527 1529 1530 1531 1531 1534 1536 1538 1540 1541 1543 1545 1547 1549 1550 1552 1554 1554 1554 1553